KF4PPJ Weather Reports


time (UTC)temp
C
wind
direction
speed
KPH
gust
KPH
rain 1hr
cm
rain 24hr
cm
rain mn
cm
humidity
%
barometer
mb
20260906002811 22 168 0.0 3.2 0.00 0.00 0.00 45 1018.8
20260906002310 22 178 3.2 3.2 0.00 0.00 0.00 46 1018.9
20260906001806 23 213 4.8 4.8 0.00 0.00 0.00 46 1018.7
20260906001301 22 169 1.6 4.8 0.00 0.00 0.00 49 1019.0
20260906000755 22 198 3.2 3.2 0.00 0.00 0.00 49 1018.8
20260906000250 22 209 4.8 9.7 0.00 0.00 0.00 49 1018.9
20260905235745 22 201 6.4 8.0 0.00 0.00 0.00 46 1018.8
20260905235244 22 197 8.0 8.0 0.00 0.00 0.00 47 1018.9
20260905234741 23 183 4.8 9.7 0.00 0.00 0.00 44 1019.0
20260905234235 23 223 4.8 4.8 0.00 0.00 0.00 44 1019.0
20260905233731 22 190 1.6 3.2 0.00 0.00 0.00 46 1018.7
20260905233230 22 200 4.8 8.0 0.00 0.00 0.00 47 1019.2
20260905232730 22 166 0.0 1.6 0.00 0.00 0.00 48 1019.2
20260905232226 22 177 1.6 3.2 0.00 0.00 0.00 47 1019.1
20260905231721 22 154 1.6 4.8 0.00 0.00 0.00 52 1019.1
20260905231217 22 197 8.0 11.3 0.00 0.00 0.00 52 1019.0
20260905230713 22 160 0.0 4.8 0.00 0.00 0.00 53 1019.2
20260905230211 21 213 3.2 3.2 0.00 0.00 0.00 55 1019.2
20260905225710 21 208 3.2 4.8 0.00 0.00 0.00 54 1019.3
20260905225206 20 221 1.6 4.8 0.00 0.00 0.00 56 1019.1
20260905224705 20 171 1.6 3.2 0.00 0.00 0.00 57 1019.3
20260905224200 21 165 1.6 4.8 0.00 0.00 0.00 56 1019.2
20260905223656 20 175 3.2 4.8 0.00 0.00 0.00 57 1019.4
20260905223153 21 182 6.4 14.5 0.00 0.00 0.00 55 1019.4
20260905222649 21 116 1.6 4.8 0.00 0.00 0.00 58 1019.3
20260905222148 21 73 3.2 4.8 0.00 0.00 0.00 58 1019.5
20260905221644 21 167 1.6 9.7 0.00 0.00 0.00 58 1019.7
20260905221141 20 166 1.6 9.7 0.00 0.00 0.00 58 1019.8
20260905220636 20 72 4.8 8.0 0.00 0.00 0.00 57 1019.7
20260905220132 20 186 3.2 8.0 0.00 0.00 0.00 60 1019.9
20260905215632 20 222 8.0 12.9 0.00 0.00 0.00 59 1020.0
20260905215127 20 204 3.2 8.0 0.00 0.00 0.00 64 1020.1
20260905214623 19 230 6.4 11.3 0.00 0.00 0.00 64 1020.1
20260905214123 18 226 4.8 4.8 0.00 0.00 0.00 64 1020.1
20260905213619 18 192 0.0 4.8 0.00 0.00 0.00 67 1020.3
20260905213114 18 170 1.6 3.2 0.00 0.00 0.00 68 1020.2
20260905212609 17 112 1.6 1.6 0.00 0.00 0.00 69 1020.1
20260905212108 17 102 3.2 3.2 0.00 0.00 0.00 71 1020.2
20260905211603 17 135 3.2 3.2 0.00 0.00 0.00 70 1020.3
20260905211059 17 209 1.6 8.0 0.00 0.00 0.00 69 1020.3
20260905210554 17 193 4.8 4.8 0.00 0.00 0.00 70 1020.4
20260905210049 18 97 3.2 4.8 0.00 0.00 0.00 70 1020.4
20260905205548 18 133 1.6 4.8 0.00 0.00 0.00 70 1020.5
20260905205043 18 156 0.0 0.0 0.00 0.00 0.00 69 1020.4
20260905204538 17 179 3.2 4.8 0.00 0.00 0.00 69 1020.4
20260905204033 17 170 3.2 4.8 0.00 0.00 0.00 70 1020.5
20260905203533 17 132 1.6 1.6 0.00 0.00 0.00 70 1020.6
20260905203028 17 144 1.6 3.2 0.00 0.00 0.00 68 1020.5
20260905202523 17 188 3.2 3.2 0.00 0.00 0.00 68 1020.7
20260905202019 17 148 0.0 1.6 0.00 0.00 0.00 67 1020.5
20260905201515 17 166 0.0 1.6 0.00 0.00 0.00 68 1020.6
20260905201014 17 200 1.6 3.2 0.00 0.00 0.00 69 1020.7
20260905200510 17 196 4.8 4.8 0.00 0.00 0.00 69 1020.7
20260905200009 17 200 4.8 8.0 0.00 0.00 0.00 70 1020.6
20260905195503 17 237 3.2 4.8 0.00 0.00 0.00 71 1020.6
20260905194958 16 183 3.2 4.8 0.00 0.00 0.00 72 1020.7
20260905194458 16 230 3.2 4.8 0.00 0.00 0.00 72 1020.7
20260905193957 17 184 3.2 4.8 0.00 0.00 0.00 72 1020.8
20260905193452 17 152 4.8 8.0 0.00 0.00 0.00 72 1020.8
20260905192947 17 182 3.2 4.8 0.00 0.00 0.00 72 1020.8
20260905192443 17 223 4.8 8.0 0.00 0.00 0.00 72 1020.9
20260905191938 17 148 8.0 9.7 0.00 0.00 0.00 69 1020.9
20260905191438 17 213 3.2 8.0 0.00 0.00 0.00 70 1020.9
20260905190937 17 210 3.2 8.0 0.00 0.00 0.00 71 1020.9
20260905190435 17 126 3.2 11.3 0.00 0.00 0.00 69 1021.0
20260905185934 18 212 9.7 12.9 0.00 0.00 0.00 68 1021.1
20260905185429 17 164 4.8 8.0 0.00 0.00 0.00 70 1021.1
20260905184928 16 186 3.2 14.5 0.00 0.00 0.00 70 1021.1
20260905184423 16 214 4.8 8.0 0.00 0.00 0.00 72 1021.2
20260905183921 16 214 4.8 4.8 0.00 0.00 0.00 75 1021.1
20260905183416 16 184 1.6 8.0 0.00 0.00 0.00 75 1021.1
20260905182911 16 229 4.8 8.0 0.00 0.00 0.00 74 1021.2
20260905182410 16 177 3.2 8.0 0.00 0.00 0.00 74 1021.2
20260905181907 16 166 3.2 9.7 0.00 0.00 0.00 75 1021.3
20260905181406 16 203 1.6 4.8 0.00 0.00 0.00 75 1021.4
20260905180905 16 181 1.6 4.8 0.00 0.00 0.00 75 1021.3
20260905180401 16 167 1.6 3.2 0.00 0.00 0.00 75 1021.4
20260905175855 16 196 3.2 4.8 0.00 0.00 0.00 75 1021.2
20260905175349 15 212 4.8 4.8 0.00 0.00 0.00 76 1021.5
20260905174844 15 194 3.2 4.8 0.00 0.00 0.00 77 1021.3
20260905174340 15 184 1.6 3.2 0.00 0.00 0.00 77 1021.4
20260905173836 15 174 1.6 4.8 0.00 0.00 0.00 77 1021.1
20260905173332 15 200 3.2 4.8 0.00 0.00 0.00 77 1021.1
20260905172832 15 159 0.0 1.6 0.00 0.00 0.00 77 1021.1
20260905172330 15 179 3.2 4.8 0.00 0.00 0.00 77 1021.1
20260905171826 16 179 4.8 4.8 0.00 0.00 0.00 76 1021.0
20260905171323 16 190 3.2 4.8 0.00 0.00 0.00 75 1020.9
20260905170819 15 181 3.2 4.8 0.00 0.00 0.00 75 1021.1
20260905170314 16 185 4.8 8.0 0.00 0.00 0.00 74 1021.3
20260905165813 16 167 0.0 3.2 0.00 0.00 0.00 73 1020.8
20260905165309 16 168 3.2 4.8 0.00 0.00 0.00 71 1020.8
20260905164810 16 146 0.0 3.2 0.00 0.00 0.00 73 1021.1
20260905164309 16 149 0.0 1.6 0.00 0.00 0.00 75 1020.9
20260905163805 15 154 0.0 1.6 0.00 0.00 0.00 77 1020.9
20260905163301 15 167 0.0 1.6 0.00 0.00 0.00 78 1020.8
20260905162757 15 162 0.0 0.0 0.00 0.00 0.00 79 1020.7
20260905162256 14 152 0.0 0.0 0.00 0.00 0.00 79 1020.8
20260905161751 14 130 0.0 0.0 0.00 0.00 0.00 80 1020.8
20260905161250 14 151 0.0 0.0 0.00 0.00 0.00 80 1020.9
20260905160749 14 138 0.0 0.0 0.00 0.00 0.00 80 1020.6
20260905160249 14 138 0.0 0.0 0.00 0.00 0.00 79 1020.8
20260905155744 14 151 0.0 0.0 0.00 0.00 0.00 80 1020.8
20260905155242 14 157 0.0 0.0 0.00 0.00 0.00 81 1020.8
20260905154737 13 159 0.0 0.0 0.00 0.00 0.00 82 1020.7
20260905154233 13 159 0.0 0.0 0.00 0.00 0.00 82 1021.0
20260905153728 13 168 0.0 0.0 0.00 0.00 0.00 83 1020.9
20260905153224 13 156 0.0 0.0 0.00 0.00 0.00 84 1021.0
20260905152719 13 153 0.0 0.0 0.00 0.00 0.00 85 1021.0
20260905152213 13 154 0.0 0.0 0.00 0.00 0.00 86 1020.7
20260905151713 12 142 0.0 0.0 0.00 0.00 0.00 87 1020.9
20260905151209 12 139 0.0 0.0 0.00 0.00 0.00 89 1020.9
20260905150704 12 152 0.0 0.0 0.00 0.00 0.00 91 1020.9
20260905150202 12 154 0.0 0.0 0.00 0.00 0.00 92 1020.9
20260905145700 11 147 0.0 0.0 0.00 0.00 0.00 92 1020.8
20260905145155 11 150 0.0 0.0 0.00 0.00 0.00 93 1020.8
20260905144655 11 155 0.0 0.0 0.00 0.00 0.00 94 1020.6
20260905144154 11 151 0.0 0.0 0.00 0.00 0.00 94 1020.6
20260905143648 11 154 0.0 0.0 0.00 0.00 0.00 94 1020.7
20260905143143 11 155 0.0 0.0 0.00 0.00 0.00 95 1020.4
20260905142641 11 158 0.0 0.0 0.00 0.00 0.00 94 1020.4
20260905142136 11 160 0.0 0.0 0.00 0.00 0.00 95 1020.5
20260905141636 11 158 0.0 0.0 0.00 0.00 0.00 94 1020.2
20260905141133 11 150 0.0 0.0 0.00 0.00 0.00 94 1020.2
20260905140628 11 154 0.0 0.0 0.00 0.00 0.00 94 1020.3
20260905140127 10 154 0.0 0.0 0.00 0.00 0.00 95 1020.3
20260905135622 10 151 0.0 0.0 0.00 0.00 0.00 95 1020.2
20260905135118 10 151 0.0 0.0 0.00 0.00 0.00 95 1020.2
20260905134612 10 150 0.0 0.0 0.00 0.00 0.00 95 1020.1
20260905134111 10 147 0.0 0.0 0.00 0.00 0.00 95 1020.0
20260905133607 10 152 0.0 0.0 0.00 0.00 0.00 95 1020.0
20260905133101 10 152 0.0 0.0 0.00 0.00 0.00 95 1020.2
20260905132600 10 148 0.0 0.0 0.00 0.00 0.00 95 1020.3
20260905132055 10 155 0.0 0.0 0.00 0.00 0.00 95 1020.1
20260905131551 10 151 0.0 0.0 0.00 0.00 0.00 95 1020.4
20260905131046 10 154 0.0 0.0 0.00 0.00 0.00 95 1020.4
20260905130544 10 149 0.0 0.0 0.00 0.00 0.00 95 1020.1
20260905130040 10 150 0.0 0.0 0.00 0.00 0.00 95 1020.1
20260905125539 10 154 0.0 0.0 0.00 0.00 0.00 95 1020.0
20260905125035 10 151 0.0 0.0 0.00 0.00 0.00 95 1020.2
20260905124531 10 147 0.0 0.0 0.00 0.00 0.00 95 1020.0
20260905124027 10 150 0.0 0.0 0.00 0.00 0.00 95 1019.9
20260905123523 10 126 0.0 0.0 0.00 0.00 0.00 95 1019.9
20260905123019 10 152 0.0 0.0 0.00 0.00 0.00 95 1020.0
20260905122513 10 136 0.0 0.0 0.00 0.00 0.00 95 1020.0
20260905122008 10 152 0.0 0.0 0.00 0.00 0.00 95 1020.1
20260905121503 10 141 0.0 0.0 0.00 0.00 0.00 95 1020.0
20260905121002 10 149 0.0 0.0 0.00 0.00 0.00 95 1019.9
20260905120456 10 148 0.0 0.0 0.00 0.00 0.00 95 1020.1
20260905115952 10 155 0.0 0.0 0.00 0.00 0.00 95 1020.1
20260905115451 10 153 0.0 0.0 0.00 0.00 0.00 95 1020.2
20260905114946 10 139 0.0 0.0 0.00 0.00 0.00 95 1020.0
20260905114446 10 158 0.0 0.0 0.00 0.00 0.00 95 1020.1
20260905113944 10 153 0.0 0.0 0.00 0.00 0.00 95 1020.0
20260905113440 10 152 0.0 0.0 0.00 0.00 0.00 95 1019.9
20260905112935 10 150 0.0 0.0 0.00 0.00 0.00 95 1019.9
20260905112430 10 149 0.0 0.0 0.00 0.00 0.00 95 1019.8
20260905111925 10 151 0.0 0.0 0.00 0.00 0.00 95 1019.8
20260905111420 10 152 0.0 0.0 0.00 0.00 0.00 95 1019.9
20260905110920 10 152 0.0 0.0 0.00 0.00 0.00 95 1019.9
20260905110413 10 147 0.0 0.0 0.00 0.00 0.00 95 1019.7
20260905105908 10 154 0.0 0.0 0.00 0.00 0.00 95 1019.7
20260905105408 10 140 0.0 0.0 0.00 0.00 0.00 95 1019.7
20260905104903 10 132 0.0 0.0 0.00 0.00 0.00 95 1019.8
20260905104358 10 150 0.0 0.0 0.00 0.00 0.00 95 1019.8
20260905103853 10 151 0.0 0.0 0.00 0.00 0.00 95 1019.7
20260905103349 10 141 0.0 0.0 0.00 0.00 0.00 95 1019.6
20260905102844 10 142 0.0 0.0 0.00 0.00 0.00 95 1019.6
20260905102341 10 156 0.0 0.0 0.00 0.00 0.00 95 1019.6
20260905101840 10 149 0.0 0.0 0.00 0.00 0.00 95 1019.5
20260905101338 10 137 0.0 0.0 0.00 0.00 0.00 95 1019.7
20260905100833 10 141 0.0 4.8 0.00 0.00 0.00 95 1019.6
20260905100329 11 136 1.6 3.2 0.00 0.00 0.00 95 1019.7
20260905095823 11 138 0.0 0.0 0.00 0.00 0.00 95 1019.5
20260905095322 10 138 1.6 3.2 0.00 0.00 0.00 95 1019.5
20260905094817 10 127 0.0 0.0 0.00 0.00 0.00 95 1019.4
20260905094313 10 152 0.0 0.0 0.00 0.00 0.00 95 1019.4
20260905093812 10 152 0.0 0.0 0.00 0.00 0.00 94 1019.7
20260905093308 10 151 0.0 0.0 0.00 0.00 0.00 94 1019.5
20260905092758 11 151 0.0 0.0 0.00 0.00 0.00 94 1019.4
20260905092253 11 150 0.0 0.0 0.00 0.00 0.00 94 1019.3
20260905091752 11 147 0.0 0.0 0.00 0.00 0.00 94 1019.5
20260905091247 11 137 0.0 0.0 0.00 0.00 0.00 94 1019.4
20260905090741 11 149 0.0 0.0 0.00 0.00 0.00 94 1019.5
20260905090236 11 149 0.0 0.0 0.00 0.00 0.00 94 1019.3
20260905085735 11 138 0.0 0.0 0.00 0.00 0.00 94 1019.5
20260905085230 11 146 0.0 0.0 0.00 0.00 0.00 94 1019.2
20260905084730 11 145 0.0 0.0 0.00 0.00 0.00 94 1019.3
20260905084230 11 146 0.0 0.0 0.00 0.00 0.00 94 1019.1
20260905083725 11 146 0.0 0.0 0.00 0.00 0.00 94 1019.2
20260905083221 11 152 0.0 0.0 0.00 0.00 0.00 94 1019.3
20260905082717 11 148 0.0 0.0 0.00 0.00 0.00 93 1019.4
20260905082212 11 141 0.0 0.0 0.00 0.00 0.00 93 1019.1
20260905081712 11 147 0.0 0.0 0.00 0.00 0.00 93 1019.2
20260905081207 11 146 0.0 0.0 0.00 0.00 0.00 93 1019.0
20260905080707 11 146 0.0 0.0 0.00 0.00 0.00 93 1019.2
20260905080201 11 146 0.0 0.0 0.00 0.00 0.00 93 1019.3
20260905075701 11 145 0.0 0.0 0.00 0.00 0.00 93 1019.3
20260905075200 11 147 0.0 0.0 0.00 0.00 0.00 92 1019.2
20260905074659 11 146 0.0 0.0 0.00 0.00 0.00 92 1019.2
20260905074154 11 151 0.0 0.0 0.00 0.00 0.00 92 1019.4
20260905073650 11 147 0.0 0.0 0.00 0.00 0.00 92 1019.4
20260905073146 11 140 0.0 0.0 0.00 0.00 0.00 92 1019.2
20260905072644 11 147 0.0 0.0 0.00 0.00 0.00 91 1019.1
20260905072140 11 151 0.0 0.0 0.00 0.00 0.00 91 1019.3
20260905071637 11 150 0.0 0.0 0.00 0.00 0.00 91 1019.3
20260905071132 12 149 0.0 0.0 0.00 0.00 0.00 91 1019.0
20260905070627 12 145 0.0 0.0 0.00 0.00 0.00 90 1018.8
20260905070123 12 152 0.0 0.0 0.00 0.00 0.00 90 1019.2
20260905065621 12 150 0.0 0.0 0.00 0.03 0.03 90 1019.0
20260905065116 12 147 0.0 0.0 0.00 0.03 0.03 90 1018.9
20260905064611 12 147 0.0 0.0 0.00 0.03 0.03 90 1019.0
20260905064106 12 147 0.0 0.0 0.00 0.03 0.03 90 1019.0
20260905063605 12 151 0.0 0.0 0.00 0.03 0.03 89 1018.9
20260905063101 12 149 0.0 0.0 0.00 0.03 0.03 89 1018.9
20260905062557 12 149 0.0 0.0 0.00 0.03 0.03 88 1018.7
20260905062050 12 160 0.0 0.0 0.00 0.03 0.03 88 1018.8
20260905061545 12 146 0.0 0.0 0.00 0.03 0.03 87 1018.5
20260905061044 12 146 0.0 0.0 0.00 0.03 0.03 87 1018.7
20260905060541 13 142 0.0 0.0 0.00 0.03 0.03 87 1018.4
20260905060036 13 145 0.0 0.0 0.00 0.03 0.03 86 1018.6
20260905055535 13 142 0.0 0.0 0.00 0.03 0.03 85 1018.3
20260905055030 13 139 0.0 0.0 0.00 0.03 0.03 85 1018.4
20260905054526 13 142 0.0 0.0 0.00 0.03 0.03 84 1018.4
20260905054021 13 139 0.0 0.0 0.00 0.03 0.03 84 1018.4
20260905053515 13 131 0.0 0.0 0.00 0.03 0.03 84 1018.4
20260905053011 13 124 0.0 0.0 0.00 0.03 0.03 84 1018.4
20260905052510 13 132 0.0 0.0 0.00 0.03 0.03 84 1018.4
20260905052004 13 120 0.0 0.0 0.00 0.03 0.03 85 1018.6
20260905051459 13 150 0.0 0.0 0.00 0.03 0.03 85 1018.5
20260905050957 13 147 0.0 0.0 0.00 0.03 0.03 84 1018.5
20260905050452 13 158 0.0 0.0 0.00 0.03 0.03 84 1018.5
20260905045948 13 153 0.0 0.0 0.00 0.03 0.03 83 1018.5
20260905045443 14 143 0.0 0.0 0.00 0.03 0.03 83 1018.6
20260905044938 14 133 0.0 0.0 0.00 0.03 0.03 83 1018.3
20260905044433 13 134 0.0 0.0 0.00 0.03 0.03 83 1018.5
20260905043932 13 136 0.0 0.0 0.00 0.03 0.03 82 1018.6
20260905043431 14 151 0.0 0.0 0.00 0.03 0.03 82 1018.7
20260905042926 14 151 0.0 0.0 0.00 0.03 0.03 82 1018.7
20260905042421 14 151 0.0 0.0 0.00 0.03 0.03 82 1018.7
20260905041916 14 152 0.0 0.0 0.00 0.03 0.03 81 1018.6
20260905041412 14 150 0.0 0.0 0.00 0.03 0.03 81 1018.4
20260905040907 14 149 0.0 0.0 0.00 0.03 0.03 81 1018.4
20260905040406 14 134 0.0 0.0 0.00 0.03 0.03 80 1018.4
20260905035906 14 137 0.0 0.0 0.00 0.03 0.03 80 1018.5
20260905035401 14 145 0.0 0.0 0.00 0.03 0.03 80 1018.5
20260905034858 15 143 0.0 0.0 0.00 0.03 0.03 79 1018.5
20260905034353 15 146 0.0 0.0 0.00 0.03 0.03 78 1018.3
20260905033851 15 120 0.0 0.0 0.00 0.03 0.03 77 1018.2
20260905033347 15 130 0.0 0.0 0.00 0.03 0.03 77 1018.5
20260905032846 15 125 0.0 0.0 0.00 0.03 0.03 78 1018.2
20260905032342 15 132 0.0 0.0 0.00 0.03 0.03 77 1018.2
20260905031837 15 123 0.0 0.0 0.00 0.03 0.03 76 1017.8
20260905031333 15 138 0.0 0.0 0.00 0.03 0.03 75 1018.1
20260905030828 15 143 0.0 0.0 0.00 0.03 0.03 75 1018.1
20260905030324 15 149 0.0 0.0 0.00 0.03 0.03 75 1018.1
20260905025823 15 146 0.0 0.0 0.00 0.03 0.03 74 1017.9
20260905025318 15 140 0.0 0.0 0.00 0.03 0.03 74 1017.9
20260905024814 15 149 0.0 0.0 0.00 0.03 0.03 74 1018.1
20260905024309 16 143 0.0 0.0 0.00 0.03 0.03 72 1017.9
20260905023805 16 145 0.0 0.0 0.00 0.03 0.03 73 1017.7
20260905023300 16 149 0.0 0.0 0.00 0.03 0.03 69 1017.8
20260905022759 16 136 0.0 0.0 0.00 0.03 0.03 69 1017.8
20260905022254 16 126 0.0 0.0 0.00 0.03 0.03 67 1017.8
20260905021754 17 140 0.0 0.0 0.00 0.03 0.03 66 1017.8
20260905021250 17 132 0.0 0.0 0.00 0.03 0.03 65 1017.9
20260905020749 17 133 0.0 0.0 0.00 0.03 0.03 65 1018.0
20260905020245 17 142 3.2 4.8 0.00 0.03 0.03 65 1017.8
20260905015743 18 128 3.2 8.0 0.00 0.03 0.03 61 1018.0
20260905015238 18 161 0.0 0.0 0.00 0.03 0.03 62 1017.9
20260905014737 18 164 0.0 1.6 0.00 0.03 0.03 60 1017.9
20260905014233 18 150 1.6 4.8 0.00 0.03 0.03 60 1017.9
20260905013728 18 119 1.6 3.2 0.00 0.03 0.03 61 1017.7
20260905013224 18 147 0.0 0.0 0.00 0.03 0.03 58 1017.7
20260905012719 19 135 0.0 1.6 0.00 0.03 0.03 56 1017.5
20260905012215 19 153 0.0 3.2 0.00 0.03 0.03 55 1017.4
20260905011712 20 149 0.0 0.0 0.00 0.03 0.03 57 1017.3
20260905011208 20 147 0.0 1.6 0.00 0.03 0.03 57 1017.3
20260905010707 20 158 1.6 4.8 0.00 0.03 0.03 52 1017.3
20260905010203 20 160 1.6 4.8 0.00 0.03 0.03 53 1017.0
20260905005659 21 156 4.8 9.7 0.00 0.03 0.03 52 1017.1
20260905005155 21 173 1.6 3.2 0.00 0.03 0.03 52 1016.9
20260905004649 21 97 4.8 8.0 0.00 0.03 0.03 52 1017.0
20260905004144 21 155 0.0 0.0 0.00 0.03 0.03 52 1016.9
20260905003639 21 96 3.2 11.3 0.00 0.03 0.03 52 1017.1
20260905003135 21 120 0.0 4.8 0.00 0.03 0.03 52 1017.0